Temp
6 6 7 7 7 7 7 8 7 9 7 7 9 8 9 13 17 18 17 18 19 21 22 22 22 22 24 25 24 23 23 22 22 24 26 26 25 24 24 22 22 22 23 25
7 7 7 7 7 7 8 7 8 9 7 8 8 7 11 14 17 17 16 17 17 18 21 19 22 23 25 25 24 24 23 19 19 20 23 25 24 25 25 25 24 22 21 23
7 7 6 6 7 7 9 8 6 8 7 7 8 8 10 12 16 18 18 18 18 17 18 20 20 22 23 22 24 22 23 21 20 20 22 22 22 24 25 24 21 22 23 25
7 6 6 6 7 8 9 7 7 9 7 6 6 8 10 12 14 17 17 16 15 16 16 16 16 20 21 22 22 21 22 20 19 22 24 23 24 24 25 24 24 22 23 24
6 6 6 6 7 8 8 5 6 10 9 10 8 6 9 11 15 15 15 17 17 16 17 18 17 16 20 20 21 21 21 19 20 20 23 24 24 25 25 25 25 25 25 25
6 6 6 6 7 7 8 8 10 7 10 10 8 8 9 12 14 16 16 17 19 18 18 19 20 19 17 18 21 20 20 18 19 17 22 20 18 21 25 25 25 25 24 26
6 6 6 6 6 7 9 9 10 8 8 9 8 9 9 10 14 15 17 17 17 19 18 14 13 14 15 17 17 18 18 15 14 15 15 15 21 24 25 24 25 26 26 26
6 6 6 6 6 7 9 9 8 8 8 11 11 8 9 11 11 14 16 18 19 17 15 11 11 10 12 13 15 15 14 14 12 13 14 17 21 23 23 22 23 24 24 25
6 6 6 6 6 6 7 7 8 8 8 10 12 9 8 10 9 11 14 18 17 15 11 10 12 12 12 12 13 14 14 14 13 12 14 15 19 22 24 24 20 24 24 23
5 5 6 6 6 6 7 7 7 8 7 10 11 8 7 9 9 9 12 15 13 14 11 11 12 12 14 12 12 12 12 13 13 12 14 17 21 22 23 18 19 22 22 22
5 5 5 6 6 6 6 7 6 5 7 9 8 8 7 6 8 8 8 10 10 11 12 14 13 12 12 13 13 14 13 12 13 13 13 14 20 21 20 19 19 20 20 21
5 4 5 5 5 6 6 6 6 6 4 3 4 6 5 5 5 3 8 10 9 9 10 11 11 12 14 14 13 17 15 16 15 16 15 18 20 20 20 19 19 19 20 19
4 5 4 4 4 5 6 6 5 4 3 4 5 5 6 3 3 3 7 9 9 9 10 10 11 13 14 14 15 16 17 18 15 16 18 19 20 20 20 19 19 19 19 18
5 5 5 5 6 6 5 5 5 6 4 6 5 2 3 2 3 5 5 12 12 10 9 9 10 12 12 15 16 14 15 16 15 15 17 19 18 18 18 18 18 18 18 17
5 6 5 5 5 5 4 4 4 4 6 6 5 3 3 3 4 6 9 11 11 10 7 6 8 9 11 10 12 14 14 13 14 14 17 17 16 17 17 16 16 17 16 16
1 3 5 5 5 3 3 2 2 4 4 5 6 3 3 2 2 5 6 6 8 8 7 8 9 10 11 10 10 15 17 17 17 17 18 17 16 16 16 16 16 16 16 16
2 1 1 2 3 3 3 4 3 3 5 4 5 5 3 2 1 2 3 4 5 6 6 8 10 11 12 12 12 15 16 16 16 16 16 15 16 14 15 16 16 14 15 15
2 3 2 1 1 1 1 2 3 3 3 4 5 5 5 4 4 4 4 4 4 5 6 9 10 11 11 10 14 15 15 14 14 14 15 14 15 15 14 15 15 14 13 13
3 3 3 3 3 2 1 1 2 3 4 5 6 6 6 5 5 5 5 6 5 7 7 8 10 9 9 11 14 14 13 13 13 13 13 14 14 14 14 13 13 13 12 12
4 3 5 6 6 3 2 2 4 5 4 6 6 7 5 6 6 7 7 9 7 7 8 8 9 10 12 14 14 14 13 13 13 11 11 12 12 12 13 13 13 13 12 12
7 9 7 8 6 5 6 7 8 8 6 6 5 7 6 6 7 7 9 7 9 8 8 9 9 9 11 13 13 12 11 11 12 12 11 11 11 11 11 11 11 12 11 11
6 6 7 9 10 9 8 8 9 9 7 6 6 5 5 6 7 7 8 8 9 8 9 9 9 10 12 11 9 8 8 9 9 9 8 7 7 7 8 9 11 10 7 4
7 8 9 8 8 7 7 6 8 7 7 7 7 6 6 7 8 7 9 7 7 9 8 9 11 11 10 9 8 6 7 7 6 6 5 5 5 5 4 6 3 5 2 2
8 8 5 7 6 5 4 5 5 7 8 8 8 7 7 8 6 7 7 7 8 8 8 9 9 9 8 7 7 6 6 5 5 4 4 3 2 1 -1 -0 0 1 0 1
7 7 5 5 3 3 3 4 6 7 8 8 8 8 8 7 5 8 6 6 7 8 9 9 9 7 7 5 6 4 1 1 2 1 1 1 0 0 -0 -1 -0 -0 1 1
6 6 6 6 5 4 4 4 6 7 7 7 8 8 7 7 8 7 7 8 8 9 8 8 7 5 5 4 2 1 1 1 1 1 1 0 0 0 -0 -1 -0 0 1 0
7 3 3 4 5 4 4 6 7 8 8 6 8 7 8 9 8 8 9 9 8 6 7 6 5 4 3 2 1 0 1 1 2 1 1 0 -0 -1 -0 -0 -1 -0 0 -0
Height
587 596 608 620 633 647 662 669 674 671 678 685 668 674 682 671 662 663 673 673 676 668 668 670 671 672 666 666 681 697 702 714 724 705 699 703 709 720 724 744 748 741 743 735
585 592 603 614 627 639 652 660 665 668 672 666 668 674 666 665 660 661 670 671 679 671 665 677 664 661 660 661 670 676 695 719 735 732 716 699 709 707 711 718 727 734 751 735
580 588 599 611 623 634 646 655 666 667 665 670 670 672 665 661 657 651 657 662 670 674 672 663 668 665 658 661 664 671 678 698 704 707 697 705 718 706 701 711 733 732 720 719
585 591 600 611 621 631 641 648 653 648 659 665 668 666 656 657 653 648 653 664 670 672 676 678 676 665 665 661 665 665 672 695 704 695 686 697 696 697 695 700 706 723 717 712
588 592 601 610 620 630 639 646 648 640 646 648 662 673 654 650 642 642 653 648 655 667 663 660 673 678 666 664 667 670 673 692 695 698 688 686 693 684 686 688 694 697 703 697
584 592 600 609 618 628 632 636 637 645 633 641 652 649 651 639 641 634 642 640 642 656 649 652 650 656 667 664 661 671 678 694 695 710 688 698 716 689 678 684 683 686 699 686
578 587 597 607 614 618 624 631 636 642 641 640 646 649 648 645 635 631 627 635 643 640 651 663 672 661 666 667 669 668 678 697 712 717 717 724 688 671 673 680 676 674 677 677
575 586 594 603 610 618 625 629 636 639 635 629 626 644 643 638 639 633 624 626 631 642 656 678 686 683 684 678 680 682 688 702 720 715 719 703 680 672 678 685 683 675 679 675
577 586 593 601 610 618 625 629 634 637 637 631 630 646 646 638 645 639 628 627 631 641 666 682 679 677 681 687 685 683 687 691 703 717 714 716 685 674 667 672 688 673 675 677
578 586 593 600 609 617 625 629 634 638 641 631 632 639 647 636 642 642 629 626 638 637 654 664 669 668 661 675 678 685 692 694 700 712 706 688 667 667 662 701 692 672 674 677
579 585 593 600 607 615 623 630 634 639 639 635 638 640 643 645 639 638 637 637 640 645 645 643 654 661 666 667 664 666 674 691 694 701 704 702 662 666 678 674 676 677 680 681
582 587 593 601 608 616 624 629 633 638 645 647 647 645 645 645 647 652 632 624 639 639 636 638 644 651 645 653 665 649 664 656 670 675 678 662 659 661 664 669 675 680 681 685
583 588 595 602 609 616 622 628 633 638 643 644 643 638 640 643 645 647 638 628 632 636 634 634 636 636 637 643 643 644 647 649 662 667 659 657 659 663 665 672 675 679 683 689
585 591 597 603 609 614 622 628 629 635 641 637 638 639 640 640 636 629 625 613 620 628 633 639 639 635 637 633 632 642 646 647 656 663 656 652 660 663 668 673 674 679 685 692
589 594 598 604 609 616 623 625 628 632 635 629 632 636 636 627 619 617 611 610 615 624 638 645 644 642 637 644 642 639 639 650 654 660 654 655 663 666 671 679 683 686 690 695
598 599 602 605 611 614 621 631 630 629 629 633 628 636 637 634 630 612 611 614 618 625 636 642 640 643 646 651 657 637 632 633 641 648 651 655 663 666 675 683 685 689 694 697
609 607 607 607 610 617 621 621 621 628 630 633 633 632 635 634 631 628 627 627 633 636 638 639 636 640 640 639 640 630 633 639 645 651 654 663 665 671 676 681 688 693 697 702
615 615 615 616 616 620 623 624 624 626 628 630 627 630 631 633 627 628 632 642 644 640 644 638 634 639 642 641 628 632 640 647 651 656 660 666 669 676 684 687 688 694 699 703
619 619 618 619 621 624 627 627 627 626 629 623 620 615 625 634 632 634 636 634 638 641 643 640 633 644 642 631 627 637 646 652 658 663 666 667 672 680 684 687 689 694 699 702
620 621 621 617 623 625 627 630 625 625 626 623 620 620 625 627 627 629 631 627 634 642 642 640 640 640 632 627 631 640 650 656 661 667 670 673 679 682 683 685 689 692 697 701
618 614 616 618 620 623 618 613 612 613 622 622 628 623 625 632 628 627 623 634 629 634 643 641 641 641 636 632 639 649 657 662 665 669 674 676 678 680 684 687 690 692 696 700
622 620 617 613 611 609 611 609 606 604 617 624 626 631 633 634 632 632 633 631 630 637 636 636 635 629 634 642 653 661 667 670 674 677 681 686 685 687 690 691 691 694 698 704
619 618 616 615 616 617 611 618 608 613 614 619 623 630 633 633 629 633 629 635 640 633 639 632 621 627 637 648 658 666 671 675 678 681 684 686 689 691 693 694 698 700 703 707
620 618 628 622 624 630 633 630 626 623 618 619 622 626 628 629 637 635 638 639 634 636 636 625 630 637 645 653 661 668 672 676 680 683 686 690 693 696 698 700 701 704 706 709
625 625 630 634 643 644 641 637 631 628 624 626 627 627 626 632 641 633 642 647 640 631 622 625 629 641 650 658 663 670 678 681 685 688 691 693 696 699 701 703 704 705 707 709
632 634 634 635 635 639 640 637 631 630 631 631 628 628 633 633 632 634 636 632 628 621 627 630 639 649 655 663 670 676 681 685 688 691 693 696 698 700 702 703 704 705 708 711
630 645 646 641 638 640 640 635 631 631 631 633 627 629 628 624 626 624 619 621 628 637 639 643 649 655 661 670 676 680 683 686 689 691 694 697 699 700 702 704 706 707 710 713
Wind_Speed
37 40 46 49 47 42 36 7 6 15 29 8 5 8 9 15 22 22 9 14 22 20 25 25 26 33 30 24 24 34 28 10 14 21 17 23 22 24 22 9 15 16 8 2
34 40 48 49 47 47 32 7 7 13 18 10 6 2 12 20 23 21 18 19 14 16 20 13 26 23 25 15 28 26 24 10 10 8 17 20 24 18 20 17 10 18 11 4
30 45 48 48 49 48 29 5 6 4 7 2 5 7 14 15 26 22 19 21 15 17 14 18 17 22 16 8 18 24 25 12 20 16 19 15 22 22 22 20 15 13 18 14
35 42 45 48 49 48 26 5 4 6 6 5 4 10 17 22 16 20 23 18 16 13 9 10 6 16 19 15 15 15 21 19 18 17 12 24 22 24 25 25 21 19 15 20
30 38 44 46 47 45 18 4 4 6 4 8 17 8 16 24 25 21 28 16 25 22 16 15 16 19 14 16 16 11 7 16 13 16 19 14 24 25 26 23 23 23 22 24
39 42 44 46 47 41 7 10 10 1 8 9 6 12 12 23 27 22 26 28 22 23 24 21 22 18 4 3 17 18 17 6 14 11 17 4 10 21 19 20 20 19 19 19
43 44 45 46 48 48 15 19 5 4 5 9 4 6 19 19 25 26 24 26 22 19 13 12 8 8 9 5 0 4 10 7 3 4 6 7 7 9 12 15 16 16 18 17
42 43 46 47 47 48 23 14 8 4 8 10 13 9 12 16 15 24 22 26 26 13 8 5 3 4 3 1 5 7 2 7 3 4 5 7 11 8 11 14 20 17 17 18
40 41 44 46 42 46 31 15 19 3 8 11 18 9 10 10 9 14 26 18 10 13 3 3 6 5 5 6 7 10 9 4 4 3 4 8 5 14 14 7 16 7 8 8
33 34 39 43 42 41 33 13 16 6 3 9 9 5 3 3 4 5 16 22 8 14 5 5 5 3 7 8 12 10 9 7 10 6 5 6 9 6 9 14 3 2 3 3
38 36 35 39 41 39 34 21 16 6 3 2 4 4 6 2 5 5 3 3 5 8 11 13 6 5 6 5 11 12 10 8 7 5 5 11 7 10 14 4 6 5 4 4
20 30 30 31 31 32 33 12 19 15 2 1 2 5 6 7 4 4 5 1 4 4 3 2 4 3 6 11 5 13 8 10 8 11 8 4 1 7 6 6 3 4 2 6
20 21 23 26 27 30 33 15 16 8 2 2 4 3 6 10 12 12 4 4 5 3 2 2 1 4 4 8 8 13 11 13 2 6 13 11 15 4 7 8 6 8 7 5
23 22 24 26 26 28 33 15 14 14 2 3 3 4 6 12 17 20 22 6 10 9 1 3 1 3 3 5 4 4 4 11 8 3 3 13 6 6 8 6 8 8 9 9
14 21 21 30 27 27 22 11 10 16 5 1 2 3 6 18 22 16 17 12 12 5 3 2 1 1 4 3 5 2 6 6 7 6 9 5 7 8 9 8 9 8 8 7
29 21 15 21 23 28 12 1 8 15 3 3 2 2 4 9 16 13 14 8 6 3 3 3 2 4 3 4 3 4 11 12 11 3 2 9 7 13 12 11 9 8 8 9
13 19 12 18 20 23 3 1 10 19 10 2 2 4 1 4 4 3 4 8 4 3 2 2 4 4 4 3 4 8 8 8 7 7 10 9 10 11 9 9 10 8 9 6
18 24 24 22 18 12 6 10 15 12 5 0 2 2 1 3 3 3 3 2 1 3 3 3 6 6 3 3 5 12 12 12 12 10 10 11 10 12 11 9 8 11 8 6
13 12 10 4 7 3 1 9 8 2 1 2 2 3 3 1 1 2 1 2 4 1 1 1 2 2 3 5 13 15 14 10 13 11 9 9 10 9 11 9 7 7 5 3
12 10 3 3 5 13 10 4 2 3 1 1 3 3 2 1 1 2 3 2 3 2 2 4 2 3 5 9 13 14 14 12 12 9 8 10 10 8 8 9 7 7 6 4
5 1 1 5 12 11 4 1 2 4 2 2 2 3 5 5 4 3 2 3 1 2 3 4 5 6 7 13 13 11 9 8 7 6 6 3 5 5 6 5 4 5 5 4
4 3 5 3 2 2 2 2 1 2 3 2 3 3 3 2 3 3 2 2 1 2 7 4 5 6 15 13 13 11 9 8 8 7 7 5 4 3 1 4 5 3 12 15
5 2 3 3 3 2 2 1 1 3 2 3 6 5 3 2 1 2 1 2 3 6 2 3 3 11 12 12 11 10 8 8 8 7 6 5 4 3 4 1 8 9 14 10
3 2 3 4 2 5 3 4 4 3 1 6 5 3 2 2 3 0 3 3 2 3 4 4 7 12 11 11 10 10 10 8 7 6 5 5 5 3 2 3 4 3 7 8
3 4 4 3 2 1 2 3 2 1 5 4 3 2 2 3 2 1 3 2 3 4 3 3 9 13 12 10 8 7 8 6 6 6 5 5 5 5 4 3 4 7 10 12
3 4 1 2 1 2 2 1 2 3 2 1 1 2 2 2 3 4 4 4 4 2 3 6 11 12 11 9 8 7 6 5 4 5 6 6 6 6 6 6 7 9 14 14
2 2 2 3 4 3 2 2 1 2 1 1 1 3 4 2 3 4 4 1 4 5 5 6 10 10 10 9 8 8 8 7 8 8 8 7 9 11 9 6 8 11 12 12
Wind_Direction
207 202 196 184 185 182 178 183 201 190 184 215 232 197 176 213 206 218 215 198 225 208 208 207 212 214 204 193 203 200 205 227 229 220 221 208 210 216 220 210 210 231 251 174
210 202 186 178 176 175 169 185 190 170 154 214 228 204 203 208 205 197 192 196 232 255 217 208 216 221 210 209 197 213 181 218 222 236 228 218 222 214 213 225 230 234 217 176
194 180 172 173 174 175 172 172 172 227 179 179 192 184 188 194 209 204 195 198 220 223 241 215 213 221 221 224 229 210 180 178 211 210 214 179 211 222 209 212 220 231 237 237
172 172 173 173 176 180 176 178 188 193 193 179 201 202 171 199 185 209 192 201 206 220 218 223 245 223 216 201 232 185 186 202 201 221 199 193 199 210 209 213 217 222 228 246
187 178 176 174 178 182 193 138 162 194 268 187 206 212 199 198 197 183 200 196 199 217 227 213 202 238 206 201 204 189 182 209 220 235 230 204 212 214 219 218 220 228 229 246
193 183 179 179 181 177 192 179 200 76 221 207 228 214 229 199 200 206 199 207 199 213 226 225 240 191 169 287 192 188 182 148 201 224 220 98 240 246 205 213 230 240 242 249
189 183 181 181 185 189 190 198 172 196 236 200 187 219 206 227 217 212 201 199 214 201 142 62 22 85 117 146 128 108 177 112 352 141 89 210 228 224 250 248 254 236 244 250
184 182 183 187 189 192 202 179 193 194 232 236 230 285 237 219 243 233 209 208 207 144 127 97 10 339 71 206 179 156 166 119 172 142 166 324 286 244 225 228 244 249 266 271
186 187 184 189 190 194 199 184 191 195 229 230 247 233 281 219 220 227 228 207 163 161 126 107 156 205 146 171 170 216 212 204 138 136 172 194 229 226 260 297 249 242 266 277
189 193 191 191 192 193 197 197 196 214 214 231 232 216 293 162 183 291 205 207 192 188 167 168 182 193 159 160 171 173 188 202 196 176 215 249 236 264 215 222 256 104 244 290
191 193 196 195 193 194 192 202 188 129 219 248 274 209 224 328 263 189 191 141 183 192 194 195 173 167 181 171 186 175 166 162 187 173 171 255 186 183 198 158 89 92 77 27
193 189 193 192 195 196 192 203 210 211 183 32 305 233 201 192 179 313 180 168 154 171 152 220 116 185 157 167 194 187 189 198 158 191 206 270 304 190 150 106 113 125 113 73
187 187 183 189 194 199 191 195 182 128 100 244 249 238 212 274 248 208 269 169 150 161 297 51 132 138 186 180 200 174 203 203 193 143 214 213 228 202 111 138 156 141 125 127
184 187 188 190 192 197 189 194 176 187 153 224 167 299 259 290 298 283 256 202 147 127 85 81 148 124 2 179 161 141 142 158 181 187 267 172 176 136 132 143 118 122 119 120
171 184 184 189 190 190 177 167 165 190 203 236 144 168 345 331 355 269 237 149 135 136 100 66 87 305 61 13 1 126 159 169 178 209 209 160 160 139 134 138 147 142 134 142
48 78 172 172 183 160 140 59 218 207 170 143 159 320 338 337 323 43 50 32 52 83 109 116 122 167 169 141 182 254 172 169 188 161 331 141 141 138 146 166 166 149 165 155
40 33 51 101 137 161 134 208 158 172 163 132 166 168 10 319 324 3 43 25 54 68 94 120 139 155 177 173 169 171 170 144 133 140 136 125 151 149 157 173 158 146 162 145
101 78 74 93 92 96 67 94 122 102 92 181 171 109 197 329 360 44 41 111 155 32 119 188 139 133 152 190 207 137 133 142 131 131 134 136 144 149 169 182 163 165 181 183
135 126 86 52 41 45 96 139 103 79 264 150 213 145 117 228 108 128 119 90 54 46 80 89 106 135 201 205 173 148 146 146 145 147 144 144 151 180 171 180 184 187 197 210
165 167 201 138 160 158 164 185 215 169 213 22 33 162 109 135 202 114 120 85 109 103 57 125 139 172 179 180 135 144 152 170 163 154 166 164 179 189 194 193 200 200 203 200
209 154 19 104 156 174 210 191 208 142 116 96 39 74 109 352 90 96 60 111 210 116 151 153 173 159 171 140 131 113 114 123 152 156 135 117 150 176 185 197 219 186 196 161
339 300 268 265 276 341 62 12 290 34 95 118 124 98 66 52 29 70 29 89 218 130 161 173 178 157 163 140 131 133 138 150 144 136 131 114 109 109 205 266 198 140 107 115
232 249 22 9 337 6 299 161 85 48 65 130 141 128 136 155 115 54 62 117 73 148 174 208 175 148 141 144 145 144 151 150 139 128 120 117 124 109 10 102 63 87 97 113
360 33 35 1 39 44 2 356 15 24 125 132 129 103 85 92 62 243 94 69 168 205 195 199 131 133 139 145 148 155 161 145 142 140 126 106 107 89 25 54 73 104 114 143
12 20 16 67 112 73 303 280 216 2 124 131 139 95 91 92 84 96 105 171 209 231 199 114 138 138 141 133 154 115 101 87 101 109 117 127 139 144 134 158 165 166 155 153
46 33 126 109 146 120 142 277 123 110 105 118 234 123 128 192 148 175 201 195 208 173 72 106 119 125 127 126 115 113 121 130 143 126 136 143 148 144 136 132 139 156 152 139
42 52 23 320 55 42 37 306 44 128 191 206 276 160 190 190 213 202 200 229 77 102 100 106 126 131 121 123 130 138 147 157 166 155 146 136 140 138 136 131 134 137 150 159